Zurück zum Katalog

STARLINK-30950

AktivKommunikationVLEO
NORAD 58440·PAYLOAD·🇺🇸 United States

Gestartet Nov 28, 2023 von Cape Canaveral Space Force Station

Loading…

Nächste Überflüge (nächste 24 Stunden)

TLE

AktuellSource: CelesTrak SupGP

Epoche: Sep 15, 2026, 02:24 UTC

1 58440C 23183D   26258.10048611 -.00002218  00000+0 -80446-4 0  2580
2 58440  42.9994 215.4340 0001341 266.8615 359.6970 15.27535258    15

Verfolge STARLINK-30950 in Echtzeit mit AllMySat

Download on the App Store